Regional Weather Roundup
Issued by NWS

Home | Current Version | Previous Version | Graphics & Text | Print | Product List | Glossary On
Versions: 1 2 3 4 5 6 7 8 9 10 11 12 13 14 15 16 17 18 19 20 21 22 23 24 25 26 27 28 29 30 31 32 33 34 35 36 37 38 39 40 41 42 43 44 45 46 47 48 49 50
000
ASUS45 KABQ 030210
RWRNM
NEW MEXICO REGIONAL WEATHER ROUNDUP
NATIONAL WEATHER SERVICE ALBUQUERQUE NM
700 PM MST FRI DEC 02 2016

NOTE: "FAIR" MEANS FEW OR NO CLOUDS BELOW 12,000 FEET AGL WITH NO
       SIGNIFICANT WEATHER OR OBSTRUCTIONS TO VISION.

      THIS PRODUCT IS RELEASED AS TWO VERSIONS.  ONE VERSION NEAR
      THE TOP OF THE HOUR CONTAINING PRELIMINARY DATA FROM ALBUQUERQUE
      AND OTHER STATIONS.  A FINAL VERSION WITH ADDITIONAL DATA IS
      ISSUED ABOUT 10 MINUTES AFTER THE HOUR.

NMZ501-503-504-510>518-030300-
NORTHWEST PLATEAU/NORTHCENTRAL MOUNTAINS

CITY           SKY/WX    TMP DP  RH WIND       PRES   REMARKS
FARMINGTON     FLURRIES  35  25  66 NW7       30.04R WCI  29
LOS ALAMOS     CLOUDY    32  22  66 SW8       30.08R WCI  25
SANTA FE       FAIR      33  23  66 SE3       30.06R
TAOS           CLOUDY    27  16  63 N7        30.09R WCI  19
ANGEL FIRE     CLOUDY    22  19  88 CALM      30.10R

$$
NMZ402-403-502-505>509-030300-
WESTCENTRAL MOUNTAINS/SOUTHWEST MOUNTAINS

CITY           SKY/WX    TMP DP  RH WIND       PRES   REMARKS
GALLUP         FAIR      32  20  61 NE8       30.02R WCI  25
GRANTS         CLOUDY    37  22  55 S12       30.02R WCI  29
SILVER CITY    CLOUDY    46  27  47 SE3       29.92

$$
NMZ407-409-411-412-030300-
SOUTHERN DESERTS

CITY           SKY/WX    TMP DP  RH WIND       PRES   REMARKS
DEMING         CLOUDY    50  38  63 SW7       29.90S
LAS CRUCES     MOCLDY    50  27  40 N5        29.91F
HOLLOMAN AFB   CLOUDY    52  24  33 CALM      29.96R
T OR C         CLOUDY    51  27  39 W6        29.91S

$$
NMZ519>523-030300-
CENTRAL VALLEYS/CENTRAL HIGHLANDS

CITY           SKY/WX    TMP DP  RH WIND       PRES   REMARKS
ALBUQUERQUE    MOCLDY    38  20  48 E24G35    30.02R WCI  27
DOUBLE EAGLE   MOCLDY    36  19  51 E9        30.04R WCI  29
MORIARTY ARPT  CLOUDY    32  20  61 E8G17     30.12R WCI  25
CLINES CORNERS CLOUDY    27  19  72 E18G26    30.10R WCI  14
BELEN          FAIR      42  21  43 SE7       30.00R
SOCORRO        CLOUDY    44  26  47 NE6       29.99R

$$
NMZ524>526-539-540-030300-
SOUTHCENTRAL MOUNTAINS

CITY           SKY/WX    TMP DP  RH WIND       PRES   REMARKS
RUIDOSO        CLOUDY    32  28  86 SE6       30.08R WCI  26

$$
NMZ527>531-030300-
NORTHEAST HIGHLANDS/NORTHEAST PLAINS

CITY           SKY/WX    TMP DP  RH WIND       PRES   REMARKS
LAS VEGAS      LGT SNOW  25  22  88 NE13      30.13R FOG     WCI  14
RATON          CLOUDY    27  24  89 CALM      30.14R
CLAYTON        CLOUDY    36  19  50 NE9       30.17R WCI  29

$$
NMZ532>537-030300-
EASTCENTRAL PLAINS

CITY           SKY/WX    TMP DP  RH WIND       PRES   REMARKS
TUCUMCARI      CLOUDY    42  20  41 NE12      30.14R
CANNON AFB     CLOUDY    40  29  65 E13       30.11R WCI  32
CLOVIS AIRPORT CLOUDY    39  28  65 E13       30.12R WCI  32

$$
NMZ028-029-538-030300-
SOUTHEAST PLAINS

CITY           SKY/WX    TMP DP  RH WIND       PRES   REMARKS
ROSWELL        CLOUDY    47  28  47 N13       30.06R
ARTESIA        CLOUDY    48  39  71 N9        30.05R
CARLSBAD       CLOUDY    48  43  82 N12       30.02R
HOBBS          CLOUDY    41  41 100 NE16      30.05S FOG


$$




USA.gov is the U.S. government's official web portal to all federal, state and local government web resources and services.